Paganella, Italy

8:28 PM CET on February 08, 2016 (GMT +0100)
Paganella

Weather History for LIVP - October, 2012

Change the Weather History Date:

Thursday, October 4, 2012

  Actual Average Record
Temperature  
Mean Temperature 40 °F -  
Max Temperature 42 °F 42 °F 57 °F (2011)
Min Temperature 39 °F 34 °F 21 °F (2008)
Degree Days  
Heating Degree Days 24    
Moisture  
Dew Point 40 °F    
Average Humidity 97    
Maximum Humidity 100    
Minimum Humidity 87    
Precipitation  
Precipitation 0.00 in 0.09 in - ()
Sea Level Pressure  
Sea Level Pressure 30.12 in    
Wind  
Wind Speed 7 mph ()    
Max Wind Speed 20 mph    
Max Gust Speed 31 mph    
Visibility 0.3 miles    
Events Fog    
Averages and records for this station are not official NWS values.
T = Trace of Precipitation, MM = Missing Value Source: Averaged Metar Reports

Daily Weather History Graph

Daily Weather History Graph

Search for Another Location

Airport or City:

Trip Planner

Search our weather history database for the weather conditions in past years. The results will help you decide how hot, cold, wet, or windy it might be!

Date:

Astronomy

Oct. 04, 2012 Rise Set
Actual Time 7:18 AM CEST 6:49 PM CEST
Civil Twilight 6:48 AM CEST 7:19 PM CEST
Nautical Twilight 6:13 AM CEST 7:54 PM CEST
Astronomical Twilight 5:38 AM CEST 8:29 PM CEST
Moon 8:57 PM CEST (10/4) 11:35 AM CEST (10/4)
Length of Visible Light 12h 30m
Length of Day
11h 31m
Waning Gibbous, 84% of the Moon is Illuminated
Oct 4
Waning Gibbous
Oct 8
Last Quarter
Oct 15
New
Oct 22
First Quarter
Oct 29
Full

Hourly Weather History & Observations

Time (CEST) Temp. Windchill Dew Point Humidity Pressure Visibility Wind Dir Wind Speed Gust Speed Precip Events Conditions
12:55 AM 41.0 °F 39.0 °F 41.0 °F 100% 30.18 in 0.0 mi WSW 3.5 mph - N/A Fog Fog
1:55 AM 41.0 °F - 41.0 °F 100% 30.18 in 0.2 mi Variable 2.3 mph - N/A Fog Fog
2:00 AM 41 °F - 40 °F 97%  in 0 mi 2.3 mph - - Fog Patches of Fog
2:55 AM 41.0 °F - 37.4 °F 87% 30.18 in 6.2 mi Calm Calm - N/A   Partly Cloudy
3:55 AM 39.2 °F 35.0 °F 37.4 °F 93% 30.15 in 0.2 mi South 5.8 mph - N/A Fog Fog
4:55 AM 39.2 °F 33.6 °F 37.4 °F 93% 30.15 in 0.0 mi SSW 8.1 mph - N/A Fog Fog
5:00 AM 40 °F - 37 °F 87%  in 0 mi SSW 8.1 mph - - Fog Heavy Fog
5:55 AM 39.2 °F 33.6 °F 39.2 °F 100% 30.12 in 0.0 mi SW 8.1 mph - N/A Fog Fog
6:55 AM 39.2 °F 33.6 °F 39.2 °F 100% 30.12 in 0.0 mi SSW 8.1 mph - N/A Fog Fog
7:55 AM 39.2 °F 33.0 °F 39.2 °F 100% 30.12 in 0.0 mi South 9.2 mph - N/A Fog Fog
8:00 AM 39 °F - 39 °F 100%  in 0 mi South 9.2 mph - - Fog Heavy Fog
8:55 AM 39.2 °F 31.2 °F 39.2 °F 100% 30.12 in 0.0 mi SSW 13.8 mph - N/A Fog Fog
9:55 AM 41.0 °F 35.8 °F 41.0 °F 100% 30.12 in 0.0 mi SSW 8.1 mph - N/A Fog Fog
10:55 AM 41.0 °F 34.7 °F 41.0 °F 100% 30.12 in 0.0 mi SSW 10.4 mph - N/A Fog Fog
11:00 AM 41 °F - 41 °F 99%  in 0 mi SSW 10.4 mph - - Fog Heavy Fog
11:55 AM 41.0 °F 35.8 °F 41.0 °F 100% 30.12 in 0.0 mi SSW 8.1 mph - N/A Fog Fog
12:55 PM 41.0 °F 34.3 °F 41.0 °F 100% 30.12 in 0.0 mi SSW 11.5 mph 23.0 mph N/A Fog Fog
1:55 PM 41.0 °F 33.9 °F 41.0 °F 100% 30.12 in 0.0 mi SSW 12.7 mph - N/A Fog Fog
2:00 PM 42 °F - 42 °F 99%  in 0 mi SSW 12.7 mph - - Fog Heavy Fog
2:55 PM 42.8 °F 34.5 °F 42.8 °F 100% 30.09 in 0.0 mi SW 18.4 mph - N/A Fog Fog
3:55 PM 42.8 °F 34.3 °F 42.8 °F 100% 30.09 in 0.0 mi SW 19.6 mph 31.1 mph N/A Fog Fog
4:55 PM 42.8 °F 35.4 °F 42.8 °F 100% 30.09 in 0.0 mi SW 15.0 mph - N/A Fog Fog
5:00 PM 43 °F - 43 °F 99%  in 0 mi SW 15.0 mph - - Fog Heavy Fog
5:55 PM 42.8 °F 35.4 °F 42.8 °F 100% 30.09 in 0.2 mi WSW 15.0 mph - N/A Fog Fog
6:55 PM 42.8 °F 35.8 °F 39.2 °F 87% 30.09 in 0.3 mi SW 13.8 mph - N/A Fog Fog
7:55 PM 42.8 °F 37.5 °F 41.0 °F 93% 30.09 in 0.0 mi South 9.2 mph - N/A Fog Fog
8:00 PM 42 °F - 42 °F 98%  in 0 mi South 9.2 mph - - Fog Heavy Fog
8:55 PM 41.0 °F 34.3 °F 39.2 °F 93% 30.12 in 0.4 mi WSW 11.5 mph - N/A Fog Fog
9:55 PM 41.0 °F 37.1 °F 39.2 °F 93% 30.12 in 0.4 mi WSW 5.8 mph - N/A Fog Fog
10:55 PM 41.0 °F 38.0 °F 41.0 °F 100% 30.15 in 0.0 mi NNW 4.6 mph - N/A Fog Fog
11:00 PM 41 °F - 41 °F 99%  in 0 mi NNW 4.6 mph - - Fog Heavy Fog
11:55 PM 41.0 °F 35.8 °F 39.2 °F 93% 30.15 in 0.4 mi NE 8.1 mph - N/A Fog Fog